Voltar ao catálogo

COSMOS 2251 DEB

AtivoLEO
NORAD 34579·DEBRIS·🇷🇺 Russia

Lançado Jun 16, 1993 de Plesetsk Cosmodrome

Loading…

Próximas Passagens (próximas 24 horas)

TLE

AtualizadoSource: Space-Track

Época: Sep 14, 2026, 06:38 UTC

1 34579U 93036VR  26257.27679250  .00000833  00000-0  24039-3 0  9994
2 34579  74.0510  70.5643 0026092  71.3746 349.9010 14.46014053921566

Acompanhe COSMOS 2251 DEB em tempo real com AllMySat

Download on the App Store